www.pogodaiklimat.ru

Погода и климат >> Архив погоды >> Россия >> Якутия >> Мача


ПОГОДА в Маче

  • Прогноз погоды в Маче
  • Монитор погоды в Маче

АРХИВ ПОГОДЫ в Маче

Время (UTC), дата Ветер
(напр.,м/с)
 
Видим.   Явления Облачность Т
(С)
Тd
(С)
f
(%)
Тe
(С)
Тes
(С)
Комфортность P
(гПа)
Po
(гПа)
Тmin
(С)
Tmax
(С)
R
(мм)
R24
(мм)
S
(см)
18 14.08 СЗ 2 н/о н/о +14.1 -27.6 4 +14 +14 1007.8 988.4
21 14.08 СЗ 2 н/о н/о +14.0 -27.7 4 +14 +14 1008.5 989.0
00 15.08 СЗ 2 20 км в посл. час ливневой дождь 9/3 600 м
[Cb cap Ac cuf]
+11.8 +13.9 100 +11 +12 1008.2 988.9 +13.8 2
03 15.08 СЗ 4 н/о н/о +16.9 -25.6 4 +17 +17 1008.8 989.6
06 15.08 З 2 10 км в посл. час ливневой дождь 9/4 600 м
[Cb cap Ac cuf]
+17.1 +15.7 91 +17 +20 1007.3 988.2
09 15.08 СЗ 2 н/о н/о +16.5 -25.9 4 +17 +17 1009.1 989.8
12 15.08 СЗ 3 10 км слаб. ливневой дождь 9/5 600 м
[Cb cap Ac cuf]
+15.4 +14.2 93 +15 +15 1009.1 989.9 +18.5 4
18 15.08 СЗ 5 н/о н/о +15.2 -26.8 4 +14 +14 1009.6 990.2
21 15.08 СЗ 5
{10}
н/о н/о +14.5 -27.3 4 +13 +13 1010.0 990.6
00 16.08 СЗ 2 10 км слаб. ливневой дождь 9/5 600 м
[Cb cap Ac cuf]
+14.4 +13.9 97 +14 +15 1009.3 990.0 +14.2 7
03 16.08 С 3 н/о н/о +15.5 +6.6 55 +15 +15 1010.5 991.1
06 16.08 З 2 50 км {ливн. осадки} 10/3 600 м
[Cb cap Ac cuf Ci ing]
+17.5 +15.1 86 +18 +21 1009.7 990.6
12 16.08 З 4 10 км слаб. ливневой дождь 9/5 600 м
[Cb cap Ac cuf]
+14.2 +13.7 97 +13 +13 1012.0 992.6 +18.4
18 16.08 СЗ 4 н/о н/о +12.5 -28.7 4 +11 +11 1012.9 993.3
21 16.08 СЗ 2 н/о н/о +12.3 -28.9 4 +12 +12 1013.0 993.3
00 17.08 З 2 50 км 10/10 1000 м
[Sc]
+12.5 +11.4 93 +11 +11 1012.2 992.6 +12.0 3
03 17.08 С 2 н/о н/о +13.9 -27.7 4 +14 +14 1012.3 992.8
06 17.08 З 2 50 км 10/10 1000 м
[Sc]
+15.0 +10.5 74 +15 +15 1011.3 992.0
09 17.08 СЗ 2 н/о н/о +14.6 1011.4 992.0
12 17.08 СЗ 2 50 км 10/3 600 м
[Cb cap Ac cuf Ci ing]
+13.9 +12.1 89 +13 +13 1011.2 991.8 +15.4
18 17.08 З 2 н/о н/о +12.3 -28.8 4 +12 +12 1009.1 989.6
21 17.08 СЗ 2 н/о н/о +12.5 -28.7 4 +12 +12 1007.9 988.4
00 18.08 С 4 10 км слаб. ливневой дождь 9/4 600 м
[Cb cap Ac cuf]
+12.7 +12.1 96 +11 +11 1007.4 987.9 +12.3 6
03 18.08 СЗ 4 н/о н/о +14.1 +7.6 65 +13 +13 1007.5 988.0
06 18.08 СВ 3 50 км {ливн. осадки} 9/9 1000 м
[Cu Sc]
+16.2 +9.5 64 +16 +17 1007.0 987.8
09 18.08 СЗ 3 н/о н/о +13.9 -27.7 4 +13 +13 1008.3 988.8
12 18.08 СЗ 2 50 км 10/3 1000 м
[Sc Ac cuf Ci ing]
+12.4 +10.3 87 +11 +11 1008.5 989.0 +17.6 0.0
18 18.08 З 1 н/о н/о +10.8 -29.9 4 +12 +12 1009.9 990.2
21 18.08 ЮЗ 2 н/о н/о +9.4 +30.9 100 +8 +8 1010.2 990.4
00 19.08 ЮВ 1 20 км осадки на расстоянии 9/4 600 м
[Cb cap Ac cuf]
+11.2 +10.0 92 +11 +12 1010.0 990.4 +8.0
03 19.08 СВ 1 н/о н/о +14.8 -27.1 4 +16 +16 1010.3 990.9
06 19.08 В 1 50 км 9/9 1000 м
[Sc]
+16.6 +12.4 76 +17 +18 1009.3 990.1
09 19.08 С 1 н/о н/о +18.6 -24.4 4 +19 +19 1009.8 990.6
12 19.08 СЗ 2 50 км 8/8 1000 м
[Sc]
+15.3 +9.3 67 +15 +15 1009.8 990.5 +18.6
18 19.08 ЮЗ 1 н/о н/о +12.0 -29.0 4 +13 +13 1011.6 992.0
21 19.08 СЗ 1 н/о н/о +12.0 +9.0 82 +12 +12 1011.9 992.3
00 20.08 СЗ 2 50 км 10/3 600 м
[Cb cap Ac cuf Ci ing]
+13.3 +12.2 93 +13 +14 1011.2 991.8 +11.9 2
06 20.08 СВ 1 50 км 8/6 1000 м
[Cu med, cong Ac cuf]
+17.6 +12.4 72 +19 +21 1011.4 992.3
12 20.08 СЗ 1 50 км 10/5 1000 м
[Sc Ac cuf Ci ing]
+17.5 +13.7 78 +19 +19 1012.3 993.1 +20.2
18 20.08 З 1 н/о н/о +11.3 -29.6 4 +12 +12 1014.7 995.0
00 21.08 СЗ 2 10 км слаб. ливневой дождь 9/6 600 м
[Cb cap Ac cuf]
+13.2 +12.5 96 +12 +13 1014.6 995.1 +10.4 0.4
06 21.08 С 2 50 км {ливн. осадки} 10/3 600 м
[Cb cap Ac cuf Ci ing]
+16.9 +15.0 89 +17 +20 1014.4 995.1
12 21.08 З 1 50 км 9/5 1000 м
[Cu med, cong Ac cuf]
+17.3 +15.6 90 +18 +18 1015.2 996.0 +18.5 3

 

Местоположение метеостанции Мача (Якутия, Россия): широта 59.93 долгота 117.60 высота над уровнем моря 164 м.

В архиве по умолчанию представлена погода в Маче за последнюю неделю. Архивные данные за месяц целиком и за предыдущие месяцы, начиная с января 2011 года, Вы можете получить, выбрав интересующий диапазон дат из раскрывающегося списка и нажав кнопку "Ввод!".


*Определитесь, кто Вы:
робот инопланетянин человек

Внимание! Время в таблицах - всемирное. Для получения местного времени необходимо прибавить поправку, которая равна 9 ч.

Смотрите также архив погоды в соседних городах и на ближайших метеорологических станциях:

Погода в Перевозе (Иркутская область, Россия) (111 км)
Погода в Килиере (Якутия, Россия) (147 км)
Погода в Тяне (Якутия, Россия) (162 км)
Погода в Олекминске (Якутия, Россия) (164 км)
Погода в Ленске (Якутия, Россия) (177 км)
Погода в Дорожном (Якутия, Россия) (249 км)
Погода в Сунтаре (Якутия, Россия) (249 км)
Погода в Джикимде (Якутия, Россия) (253 км)
Погода в Крестяхе (Якутия, Россия) (272 км)
Погода в Витиме (Якутия, Россия) (291 км)

Пояснения к столбцам:

Ветер - указаны скорость ветра в м/с - средняя за 10 мин, порывы в срок и между сроками (в фигурных скобках) и направление, откуда дует ветер: С - северный, СВ - северо-восточный, В - восточный, ЮВ - юго-восточный, Ю - южный, ЮЗ - юго-западный, З - западный, СЗ - северо-западный.
Видимость - горизонтальная дальность видимости в метрах или километрах. При видимости от 1 до 10 км при отсутствии осадков обычно наблюдается дымка, при ухудшении видимости до 1 км и менее - туман. В сухую погоду видимость может ухудшаться дымом, пылью или мглою.
Явления - указаны атмосферные явления, наблюдавшиеся в срок или в последний час перед сроком; фигурными скобками обозначены явления, наблюдавшиеся между сроками (за 1-3 часа до срока); квадратными скобками обозначены град или гололедные отложения с указанием их диаметра в мм.
Облачность - указаны через наклонную черту общая и нижняя облачность в баллах и высота нижней границы облаков в метрах; квадратными скобками обозначены формы облаков: Ci - перистые, Cs - перисто-слоистые, Cc - перисто-кучевые, Ac - высококучевые, As - высокослоистые, Sc - слоисто-кучевые, Ns - слоисто-дождевые, Cu - кучевые, Cb - кучево-дождевые. Подробнее классификацию облаков см. в Атласе облаков (PDF).
T - Температура воздуха - температура, измеренная на высоте 2 м над землей.
Td - Температура точки росы - температура, при понижении до которой содержащийся в воздухе водяной пар достигнет насыщения.
f - Относительная влажность воздуха - влажноcть воздуха, измеренная на высоте 2 м над землей.
Te - Эффективная температура - температура, которую ощущает одетый по сезону человек в тени. Характеристика душности погоды. При расчете учитывается влияние влажности воздуха и скорости ветра на теплоощущения человека.
Tes - Эффективная температура на солнце - температура, которую ощущает человек, с поправкой на солнечный нагрев. Характеристика знойности погоды. Зависит от высоты солнца над горизонтом, облачности и скорости ветра. Ночью, в пасмурную погоду, а также при ветре 12 м/с и более поправка равна нулю.
P - Атмосферное давление - приведенное к уровню моря атмосферное давление.
Po - Атмосферное давление - измеренное на уровне метеостанции атмосферное давление.
Tmin - Минимальная температура - минимум температуры воздуха на высоте 2 м над землей.
Tmax - Максимальная температура - максимум температуры воздуха на высоте 2 м над землей.
R - Количество осадков - Количество выпавших осадков за период времени, мм. При наведении курсора мыши на число - период времени, за который выпало указанное количество осадков.
R24 - Количество осадков - Количество выпавших осадков за 24 часа, мм.
S - Снежный покров - Высота снежного покрова, см. При наведении курсора мыши на число - состояние снежного покрова и степень покрытия местности в баллах.